When you browse on this site, cookies collect data to enhance your experience and personalize the content and advertising you see.
Visit our Privacy Policy to learn more. By continuing to use the site, you agree to this use of cookies and data.
  • In Österreich
  • Länderverzeichnis
  • Für 7 Tage
  • Wassertemperatur
  • Wetterkarte
  • News
  • Widgets
  • user-avatar
    Anmelden

    Stündliche Wetter Huejutla de Reyes

    Heute, 22 November, Freitag

    Zeit Temperatur Niederschläge Wind Luftdruck Luftfeuchtigkeit
    00:00 +21°C° 0 mm 0 m/S 745 mmHg 94%
    01:00 +21°C° 0 mm 0 m/S 745 mmHg 94%
    02:00 +21°C° 0 mm 0 m/S 745 mmHg 94%
    03:00 +21°C° 0 mm 0 m/S 745 mmHg 93%
    04:00 +21°C° 0 mm 0 m/S 745 mmHg 93%
    05:00 +21°C° 0 mm 0 m/S 745 mmHg 92%
    06:00 +22°C° 0 mm 0 m/S 746 mmHg 91%
    07:00 +23°C° 0 mm 0 m/S 746 mmHg 89%
    08:00 +25°C° 0 mm 1 m/S 746 mmHg 87%
    09:00 +26°C° 0 mm 1 m/S 746 mmHg 83%
    10:00 +27°C° 0 mm 1 m/S 745 mmHg 78%
    11:00 +29°C° 0 mm 2 m/S 745 mmHg 74%
    12:00 +29°C° 0 mm 2 m/S 744 mmHg 74%
    13:00 +29°C° 0 mm 1 m/S 743 mmHg 74%
    14:00 +29°C° 0 mm 1 m/S 742 mmHg 75%
    15:00 +28°C° 0 mm 1 m/S 743 mmHg 79%
    16:00 +27°C° 0 mm 1 m/S 743 mmHg 83%
    17:00 +26°C° 0 mm 1 m/S 744 mmHg 87%
    18:00 +26°C° 0 mm 1 m/S 745 mmHg 88%
    19:00 +25°C° 0 mm 1 m/S 745 mmHg 90%
    20:00 +23°C° 0 mm 0 m/S 746 mmHg 91%
    21:00 +23°C° 0 mm 0 m/S 746 mmHg 91%
    22:00 +23°C° 0 mm 0 m/S 746 mmHg 92%
    23:00 +23°C° 0 mm 0 m/S 746 mmHg 92%

    Morgen, 23 November, Samstag

    Zeit Temperatur Niederschläge Wind Luftdruck Luftfeuchtigkeit
    00:00 +23°C° 0 mm 0 m/S 746 mmHg 92%
    01:00 +22°C° 0 mm 0 m/S 746 mmHg 92%
    02:00 +22°C° 0 mm 0 m/S 745 mmHg 93%
    03:00 +22°C° 0.1 mm 0 m/S 746 mmHg 93%
    04:00 +22°C° 0.1 mm 0 m/S 746 mmHg 93%
    05:00 +22°C° 0.1 mm 0 m/S 746 mmHg 93%
    06:00 +22°C° 0 mm 0 m/S 747 mmHg 92%
    07:00 +23°C° 0 mm 0 m/S 747 mmHg 90%
    08:00 +25°C° 0 mm 1 m/S 747 mmHg 88%
    09:00 +26°C° 0 mm 1 m/S 747 mmHg 84%
    10:00 +27°C° 0 mm 1 m/S 747 mmHg 79%
    11:00 +28°C° 0 mm 1 m/S 747 mmHg 75%
    12:00 +28°C° 0.1 mm 2 m/S 746 mmHg 76%
    13:00 +28°C° 0.1 mm 2 m/S 746 mmHg 77%
    14:00 +28°C° 0.1 mm 2 m/S 745 mmHg 78%
    15:00 +27°C° 0.2 mm 2 m/S 745 mmHg 83%
    16:00 +26°C° 0.2 mm 1 m/S 746 mmHg 88%
    17:00 +25°C° 0.2 mm 1 m/S 746 mmHg 92%
    18:00 +25°C° 0.3 mm 1 m/S 747 mmHg 93%
    19:00 +24°C° 0.3 mm 1 m/S 748 mmHg 94%
    20:00 +24°C° 0.3 mm 1 m/S 748 mmHg 95%
    21:00 +24°C° 0.3 mm 1 m/S 748 mmHg 96%
    22:00 +24°C° 0.3 mm 1 m/S 748 mmHg 96%
    23:00 +21°C° 0.3 mm 0 m/S 748 mmHg 97%

    übermorgen, 24 November, Sonntag

    Zeit Temperatur Niederschläge Wind Luftdruck Luftfeuchtigkeit
    00:00 +21°C° 0.3 mm 0 m/S 748 mmHg 97%
    01:00 +21°C° 0.3 mm 0 m/S 748 mmHg 97%
    02:00 +21°C° 0.3 mm 0 m/S 747 mmHg 97%
    03:00 +21°C° 0.2 mm 0 m/S 747 mmHg 98%
    04:00 +21°C° 0.2 mm 0 m/S 747 mmHg 98%
    05:00 +23°C° 0.2 mm 1 m/S 747 mmHg 98%
    06:00 +23°C° 0.2 mm 1 m/S 748 mmHg 97%
    07:00 +23°C° 0.2 mm 1 m/S 748 mmHg 96%
    08:00 +23°C° 0.2 mm 1 m/S 749 mmHg 95%
    09:00 +24°C° 0.1 mm 1 m/S 748 mmHg 92%
    10:00 +25°C° 0.1 mm 1 m/S 748 mmHg 89%
    11:00 +26°C° 0.1 mm 1 m/S 747 mmHg 86%
    12:00 +26°C° 0.1 mm 1 m/S 746 mmHg 84%
    13:00 +27°C° 0.1 mm 1 m/S 745 mmHg 83%
    14:00 +27°C° 0.1 mm 1 m/S 744 mmHg 81%
    15:00 +26°C° 0.1 mm 1 m/S 744 mmHg 85%
    16:00 +25°C° 0.1 mm 1 m/S 745 mmHg 90%
    17:00 +24°C° 0.1 mm 1 m/S 745 mmHg 94%
    18:00 +24°C° 0.1 mm 1 m/S 745 mmHg 95%
    19:00 +22°C° 0.1 mm 0 m/S 745 mmHg 95%
    20:00 +21°C° 0.1 mm 0 m/S 746 mmHg 96%
    21:00 +21°C° 0 mm 0 m/S 745 mmHg 96%
    22:00 +21°C° 0 mm 0 m/S 745 mmHg 97%
    23:00 +21°C° 0 mm 0 m/S 745 mmHg 97%

    25 November, Montag

    Zeit Temperatur Niederschläge Wind Luftdruck Luftfeuchtigkeit
    00:00 +21°C° 0 mm 0 m/S 744 mmHg 97%
    01:00 +21°C° 0 mm 0 m/S 744 mmHg 96%
    02:00 +21°C° 0 mm 0 m/S 743 mmHg 96%
    03:00 +21°C° 0 mm 0 m/S 743 mmHg 96%
    04:00 +21°C° 0 mm 0 m/S 743 mmHg 96%
    05:00 +21°C° 0 mm 0 m/S 743 mmHg 95%
    06:00 +21°C° 0 mm 0 m/S 744 mmHg 93%
    07:00 +24°C° 0 mm 1 m/S 744 mmHg 90%
    08:00 +25°C° 0 mm 1 m/S 744 mmHg 87%
    09:00 +26°C° 0 mm 1 m/S 744 mmHg 83%
    10:00 +28°C° 0 mm 1 m/S 743 mmHg 78%
    11:00 +29°C° 0 mm 2 m/S 742 mmHg 74%
    12:00 +29°C° 0 mm 2 m/S 742 mmHg 75%
    13:00 +29°C° 0 mm 2 m/S 741 mmHg 77%
    14:00 +29°C° 0 mm 2 m/S 741 mmHg 78%
    15:00 +28°C° 0 mm 2 m/S 741 mmHg 81%
    16:00 +27°C° 0 mm 1 m/S 741 mmHg 85%
    17:00 +26°C° 0 mm 1 m/S 741 mmHg 88%
    18:00 +25°C° 0 mm 1 m/S 742 mmHg 89%
    19:00 +25°C° 0 mm 1 m/S 742 mmHg 91%
    20:00 +22°C° 0 mm 0 m/S 743 mmHg 93%
    21:00 +22°C° 0 mm 0 m/S 743 mmHg 93%
    22:00 +21°C° 0 mm 0 m/S 743 mmHg 94%
    23:00 +21°C° 0 mm 0 m/S 743 mmHg 95%

    26 November, Dienstag

    Zeit Temperatur Niederschläge Wind Luftdruck Luftfeuchtigkeit
    00:00 +21°C° 0 mm 0 m/S 742 mmHg 95%
    01:00 +21°C° 0 mm 0 m/S 742 mmHg 95%
    02:00 +20°C° 0 mm 0 m/S 742 mmHg 95%
    03:00 +20°C° 0 mm 0 m/S 742 mmHg 95%
    04:00 +20°C° 0 mm 0 m/S 742 mmHg 94%
    05:00 +20°C° 0 mm 0 m/S 742 mmHg 93%
    06:00 +21°C° 0 mm 0 m/S 742 mmHg 90%
    07:00 +23°C° 0 mm 0 m/S 742 mmHg 87%
    08:00 +24°C° 0 mm 0 m/S 743 mmHg 84%
    09:00 +25°C° 0 mm 0 m/S 742 mmHg 80%
    10:00 +28°C° 0 mm 1 m/S 742 mmHg 77%
    11:00 +30°C° 0 mm 1 m/S 741 mmHg 73%
    12:00 +30°C° 0 mm 1 m/S 741 mmHg 73%
    13:00 +30°C° 0 mm 1 m/S 740 mmHg 72%
    14:00 +30°C° 0 mm 1 m/S 740 mmHg 72%
    15:00 +29°C° 0 mm 1 m/S 740 mmHg 78%
    16:00 +28°C° 0 mm 1 m/S 741 mmHg 84%
    17:00 +26°C° 0 mm 1 m/S 741 mmHg 89%
    18:00 +26°C° 0 mm 1 m/S 742 mmHg 91%
    19:00 +23°C° 0 mm 0 m/S 743 mmHg 93%
    20:00 +22°C° 0 mm 0 m/S 743 mmHg 95%
    21:00 +22°C° 0 mm 0 m/S 743 mmHg 95%
    22:00 +23°C° 0 mm 0 m/S 744 mmHg 96%
    23:00 +25°C° 0 mm 1 m/S 744 mmHg 96%

    27 November, Mittwoch

    Zeit Temperatur Niederschläge Wind Luftdruck Luftfeuchtigkeit
    00:00 +25°C° 0.1 mm 1 m/S 744 mmHg 96%
    01:00 +24°C° 0.1 mm 1 m/S 744 mmHg 97%
    02:00 +24°C° 0.1 mm 1 m/S 744 mmHg 97%
    03:00 +22°C° 0.1 mm 0 m/S 744 mmHg 96%
    04:00 +22°C° 0.1 mm 0 m/S 745 mmHg 96%
    05:00 +22°C° 0.1 mm 0 m/S 745 mmHg 96%
    06:00 +23°C° 0.1 mm 0 m/S 745 mmHg 93%
    07:00 +24°C° 0.1 mm 0 m/S 746 mmHg 90%
    08:00 +24°C° 0.1 mm 0 m/S 747 mmHg 88%
    09:00 +27°C° 0.1 mm 1 m/S 746 mmHg 83%
    10:00 +28°C° 0.1 mm 1 m/S 746 mmHg 78%
    11:00 +29°C° 0.1 mm 1 m/S 746 mmHg 73%
    12:00 +29°C° 0.1 mm 1 m/S 745 mmHg 73%
    13:00 +29°C° 0.1 mm 1 m/S 745 mmHg 73%
    14:00 +30°C° 0.1 mm 1 m/S 744 mmHg 72%
    15:00 +29°C° 0.1 mm 1 m/S 745 mmHg 76%
    16:00 +26°C° 0.1 mm 0 m/S 745 mmHg 81%
    17:00 +25°C° 0.1 mm 0 m/S 746 mmHg 85%
    18:00 +24°C° 0.2 mm 0 m/S 746 mmHg 87%
    19:00 +24°C° 0.2 mm 0 m/S 747 mmHg 89%
    20:00 +24°C° 0.2 mm 0 m/S 748 mmHg 90%
    21:00 +25°C° 0.2 mm 1 m/S 748 mmHg 91%
    22:00 +25°C° 0.2 mm 1 m/S 748 mmHg 92%
    23:00 +25°C° 0.2 mm 1 m/S 748 mmHg 93%
    Mehr zeigen